Content
SEND FEEDBACK

Daily
Averages
Monthly
Summary
United States of America

WEST GLACIER, MONTANA


Home > North America > United States > Montana
Elevation: 3514 feet     Latitude: 48 30N     Longitude: 113 59W

WEATHER
 
SELECT A DAY
Number of Records: 92,293;   Date Range: 10/25/05 - 9/18/14
 
SHARE

PRINT THIS DATA

[ ← Previous Day ]
WEATHER ALMANAC - JANUARY 31, 2013
[ Next Day → ]
[ °C ]   °F
Weather ElementAverageHighLow
Temperature36.8 °F39.9 °F (11:55 am)33.1 °F (2:55 am)
Dewpoint31.8 °F34 °F (3:55 pm)28 °F (1:55 am)
Humidity82.3 %93 % (6:55 pm)73 % (11:55 am)
Barometer30.16 in30.21 in (10:55 am)30.10 in (4:50 pm)
Wind Speed7.3 mph12.7 mph (9:55 am)
Weather ElementAverage
Visibility10 mi
Wind DirectionSSE (147.2 °)

Weather ElementTotal
Precipitation0.04 in
Heating Degree Days28.5 (Base 65)
Averaged from 25 records on January 31, 2013
WEATHER CONDITIONS BREAKOUT
WIND DIRECTION BREAKOUT
WEATHER BY HOUR - JANUARY 31, 2013
[ °C ]   °F
Local TimeTemperatureDewpointHumidityBarometerVisibilityWind DirectionWind SpeedGust SpeedPrecipitationEventsConditions
1:55 AM35.1 °F28.0 °F76 %30.16 in10.0 miCalmOvercast
2:55 AM33.1 °F28.0 °F82 %30.17 in10.0 miCalmOvercast
3:55 AM33.1 °F28.0 °F82 %30.17 in10.0 miSouth (170°)3.5 mphOvercast
4:55 AM35.1 °F28.9 °F78 %30.17 in10.0 miCalmOvercast
5:55 AM36.0 °F28.9 °F76 %30.17 in10.0 miSSE (160°)5.8 mphOvercast
6:55 AM37.0 °F30.0 °F76 %30.17 in10.0 miSSE (160°)6.9 mphOvercast
7:55 AM37.0 °F30.0 °F76 %30.18 in10.0 miSouth (190°)5.8 mphOvercast
8:55 AM37.0 °F30.0 °F76 %30.19 in10.0 miSouth (190°)5.8 mphOvercast
9:55 AM37.9 °F32.0 °F79 %30.19 in10.0 miSSW (210°)12.7 mphOvercast
10:55 AM37.9 °F32.0 °F79 %30.21 in10.0 miSSW (200°)9.2 mphOvercast
11:55 AM39.9 °F32.0 °F73 %30.20 in10.0 miSouth (190°)10.4 mphOvercast
12:55 PM37.9 °F32.0 °F79 %30.19 in10.0 miSSE (160°)10.4 mphOvercast
1:55 PM37.9 °F33.1 °F83 %30.18 in10.0 miSouth (170°)8.1 mphOvercast
2:55 PM37.9 °F33.1 °F83 %30.18 in10.0 miSSE (160°)10.4 mph0.00 inOvercast
3:55 PM37.9 °F34.0 °F86 %30.18 in10.0 miSE (140°)8.1 mph0.00 inRainLight Rain
4:36 PM37.4 °F33.8 °F87 %30.11 in10.0 miSE (130°)6.9 mph0.01 inRainLight Rain
4:50 PM37.4 °F33.8 °F87 %30.10 in10.0 miESE (120°)11.5 mph0.01 inRainLight Rain
4:55 PM37.0 °F34.0 °F89 %30.17 in10.0 miESE (120°)9.2 mph0.01 inRainLight Rain
5:55 PM37.0 °F33.1 °F86 %30.16 in10.0 miSE (140°)12.7 mph0.00 inOvercast
6:55 PM36.0 °F34.0 °F93 %30.15 in10.0 miSSW (210°)6.9 mph0.00 inRainLight Rain
7:55 PM37.0 °F34.0 °F89 %30.15 in10.0 miSE (140°)8.1 mph0.01 inRainLight Rain
8:55 PM37.0 °F33.1 °F86 %30.13 in10.0 miSSE (150°)8.1 mph0.00 inRainLight Rain
9:55 PM37.0 °F33.1 °F86 %30.13 in10.0 miSSE (160°)8.1 mph0.00 inOvercast
10:55 PM36.0 °F33.1 °F89 %30.12 in10.0 miSW (220°)4.6 mphOvercast
11:55 PM37.0 °F32.0 °F82 %30.11 in10.0 miSouth (190°)8.1 mphOvercast
Hourly data recorded from KGPI, located miles away from West Glacier, Montana







STORIES FROM OUR PARTNERS